{"data":{"norad_id":61719,"intl_designator":"2024-196N","name":"STARLINK-32344","alt_names":[],"object_type":"PAYLOAD","status":"ACTIVE","operator":null,"country":"US","launch_date":"2024-10-30","launch_site_code":"AFETR","launch_vehicle":null,"mission":null,"orbit_class":"UNKNOWN","rcs_meters":null,"size_class":null,"mass_kg":null,"dimensions":null,"purposes":["comms"],"wikipedia_slug":null,"has_3d_model":false,"image_url":null,"decayed_at":null,"tle_current":{"epoch":"2026-09-21T07:19:58.508256Z","epoch_age_seconds":119260,"freshness":"FRESH","line1":"1 61719U 24196N   26264.30553829  .00000744  00000+0  33149-4 0  9999","line2":"2 61719  53.1609 270.0756 0001303  88.1098 272.0054 15.34392441107147","mean_motion":15.34392441,"eccentricity":0.0001303,"inclination_deg":53.1609,"raan_deg":270.0756,"arg_perigee_deg":88.1098,"mean_anomaly_deg":272.0054,"bstar":3.3149e-5,"rev_number":10714,"period_min":93.848220411039,"perigee_km":461.83434282957,"apogee_km":463.61707165108,"semimajor_km":6840.8627072403,"source":"CELESTRAK","updated_at":"2026-09-22T09:00:49.437186Z"}}}